Regional Weather Roundup
Issued by NWS

Home | Current Version | Previous Version | Text Only | Print | Product List | Glossary On
Versions: 1 2 3 4 5 6 7 8 9 10 11 12 13 14 15 16 17 18 19 20 21 22 23 24 25 26 27 28 29 30 31 32 33 34 35 36 37 38 39 40 41 42 43 44 45 46 47 48 49 50
000
ASCA44 KEWX 011520
RWRMX

LATIN AMERICA AND CARIBBEAN REGIONAL WEATHER ROUNDUP
NATIONAL WEATHER SERVICE AUSTIN/SAN ANTONIO TX
900 AM CST SUN MAR 01 2015

NOTE: "FAIR" INDICATED FEW OR NO CLOUDS BELOW 12,000 FEET WITH NO
SIGNIFICANT WEATHER AND/OR OBSTRUCTIONS TO VISIBILITY.

BAJA CALIFORNIA

CITY           SKY/WX    TMP DP  RH WIND       PRES   REMARKS
LORETO         MOSUNNY   64  54  68 W12       29.97S
LA PAZ         PTSUNNY   61  54  77 CALM      30.07
MEXICALI       CLOUDY    55  45  67 S5        29.92
S.J. DEL CABO  PTSUNNY   64  50  59 SW7       30.02R
TIJUANA        RAIN      52  50  93 E6        29.94R

NORTHWESTERN MEXICO

CITY           SKY/WX    TMP DP  RH WIND       PRES   REMARKS
CULIACAN       PTSUNNY   64  63  94 CALM      30.02
DURANGO        PTSUNNY   48  27  43 S3        30.32R
GUAYMAS        MOSUNNY   66  63  88 NE7       29.96
HERMOSILLO     MOSUNNY   64  57  77 SE8       30.02
CD. JUAREZ     PTSUNNY   46  36  66 CALM      30.05
LOS MOCHIS     PTSUNNY   63  57  82 E10       30.03R
OBREGON        MOSUNNY   66  61  82 E13       30.00

NORTHEASTERN MEXICO

CITY           SKY/WX    TMP DP  RH WIND       PRES   REMARKS
CHIHUAHUA      PTSUNNY   52  28  40 SW8       30.17
MATAMOROS      FOG       48  48 100 NW6       30.22  VSB 1/4 WCI  46
MONTERREY      FOG       48  46  93 CALM      30.17S VSB 3/4
NUEVO LAREDO   FOG       45  41  87 N6        30.23  VSB 1/4 WCI  41
PIEDRAS NEGRAS FOG       46  43  87 CALM      30.24R VSB 1/2
REYNOSA        CLOUDY    46  45  93 W6        30.22  FOG     WCI  43
SALTILLO       PTSUNNY   72  45  37 S12       30.22R
TORREON        PTSUNNY   57  39  51 CALM      30.18R
CD. VICTORIA   CLOUDY    52  48  87 CALM      30.19

WESTERN MEXICO

CITY           SKY/WX    TMP DP  RH WIND       PRES   REMARKS
AGUASCALIENTES MOSUNNY   57  28  33 N6        30.37
COLIMA         SUNNY     72  41  33 CALM      30.14
DEL BAJIO      SUNNY     64  37  36 CALM      30.40R
GUADALAJARA    SUNNY     61  36  39 CALM      30.29
MANZANILLO     SUNNY     61  50  67 N6        30.00R
MAZATLAN       PTSUNNY   61  55  82 N10       30.02R
P. VALLARTA    SUNNY     66  61  82 NE6       30.02R
URUAPAN        SUNNY     55  48  76 CALM      30.28R
ZACATECAS      MOSUNNY   55  30  38 S6        30.36R

CENTRAL MEXICO

CITY           SKY/WX    TMP DP  RH WIND       PRES   REMARKS
CUERNAVACA     SUNNY     73  37  27 CALM      30.26R
MEXICO CITY    SUNNY     59  37  44 NE6       30.41S
MORELIA        SUNNY     54  41  62 CALM      30.34
POZA RICA      PTSUNNY   66  61  82 CALM      30.20R
PUEBLA         SUNNY     54  39  58 N3        30.43R
QUERETARO      SUNNY     57  39  51 CALM      30.39R
S. LUIS POTOSI MOSUNNY   43  41  93 CALM      30.33S FOG
TAMPICO        CLOUDY    63  59  88 NE9       30.18R
TOLUCA         SUNNY     46  36  66 S3        30.47R

SOUTHERN MEXICO

CITY           SKY/WX    TMP DP  RH WIND       PRES   REMARKS
B. DE HUATULCO SUNNY     81  68  65 CALM      30.03
OAXACA         SUNNY     61  48  63 N3        30.36R
P. ESCONDIDO   SUNNY     79  64  61 E9        30.11R
VERACRUZ       CLOUDY    68  63  83 NW2       30.18R
ZIHUATANEJO    MOSUNNY   77  64  65 CALM      30.01R

YUCATAN PENINSULA

CITY           SKY/WX    TMP DP  RH WIND       PRES   REMARKS
CAMPECHE       MOSUNNY   79  72  78 E18       30.13R
CANCUN         MOSUNNY   81  73  78 E14       30.20R
CHETUMAL       MOSUNNY   81  70  69 NE10      30.14R
CD. DEL CARMEN MOSUNNY   81  72  74 E16       30.13
COZUMEL        MOSUNNY   79  70  73 E13       30.19R
MERIDA         PTSUNNY   77  70  78 E15       30.19R
MINATITLAN     CLOUDY    70  68  94 CALM      30.11  HAZE
TAPACHULA      SUNNY     81  70  69 CALM      29.99R
TUX. GUTIERREZ SUNNY     72  61  68 NW5       30.16R
VILLAHERMOSA   MOSUNNY   75  73  94 E8        30.14R

CENTRAL AMERICA

CITY           SKY/WX    TMP DP  RH WIND       PRES   REMARKS
BELIZE CITY    MOSUNNY   84  73  70 E12       30.14R HX  91
MANAGUA        MOSUNNY   84  66  54 E12       29.97R

CARIBBEAN

CITY           SKY/WX    TMP DP  RH WIND       PRES   REMARKS
ARUBA          MOSUNNY   86  72  62 E21       30.03S HX  92
KINGSTON       MOSUNNY   84  73  70 SE7       30.09S HX  91
NASSAU         MOSUNNY   79  81 100 E13       30.32R
SAN JUAN       MOSUNNY   82  70  65 E22       30.18S
SANTO DOMINGO  MOSUNNY   82  73  74 E14       30.18S
ST. KITTS      MOSUNNY   84  70  61 NE20      30.12F
ST. MAARTEN    MOSUNNY   81  66  61 E20       30.15S

$$



USA.gov is the U.S. government's official web portal to all federal, state and local government web resources and services.